When you browse on this site, cookies collect data to enhance your experience and personalize the content and advertising you see.
Visit our Privacy Policy to learn more. By continuing to use the site, you agree to this use of cookies and data.
  • In Hungary
  • List of Countries
  • For 7 days
  • Water Temperature
  • Satellite Maps
  • Weather Map
  • News
  • Weather Widgets
  • user-avatar
    Login

    Hourly Weather Nerdashevo

    Today, 22 November, Thursday

    Time Temperature Precipitation Wind Pressure Humidity
    00:00 -8°C° 0 mm 4 mps 743 mmHg 84%
    01:00 -9°C° 0 mm 4 mps 743 mmHg 86%
    02:00 -9°C° 0 mm 4 mps 743 mmHg 88%
    03:00 -8°C° 0 mm 3 mps 742 mmHg 91%
    04:00 -9°C° 0 mm 4 mps 741 mmHg 91%
    05:00 -9°C° 0 mm 4 mps 741 mmHg 91%
    06:00 -9°C° 0 mm 4 mps 740 mmHg 91%
    07:00 -8°C° 0.2 mm 5 mps 739 mmHg 89%
    08:00 -9°C° 0.2 mm 6 mps 738 mmHg 86%
    09:00 -8°C° 0.2 mm 6 mps 738 mmHg 84%
    10:00 -8°C° 0.4 mm 6 mps 737 mmHg 85%
    11:00 -8°C° 0.4 mm 7 mps 736 mmHg 86%
    12:00 -8°C° 0.4 mm 7 mps 735 mmHg 86%
    13:00 -6°C° 0.5 mm 6 mps 734 mmHg 87%
    14:00 -6°C° 0.5 mm 6 mps 733 mmHg 88%
    15:00 -5°C° 0.5 mm 6 mps 733 mmHg 89%
    16:00 -5°C° 0.3 mm 5 mps 733 mmHg 88%
    17:00 -5°C° 0.3 mm 5 mps 733 mmHg 86%
    18:00 -4°C° 0.3 mm 4 mps 733 mmHg 85%
    19:00 -5°C° 0.1 mm 4 mps 733 mmHg 87%
    20:00 -6°C° 0.1 mm 3 mps 732 mmHg 89%
    21:00 -6°C° 0.1 mm 2 mps 732 mmHg 91%
    22:00 -6°C° 0.1 mm 2 mps 732 mmHg 92%
    23:00 -6°C° 0.1 mm 2 mps 733 mmHg 93%

    Tomorrow, 23 November, Friday

    Time Temperature Precipitation Wind Pressure Humidity
    00:00 -7°C° 0.1 mm 2 mps 733 mmHg 94%
    01:00 -8°C° 0.3 mm 3 mps 733 mmHg 90%
    02:00 -8°C° 0.3 mm 5 mps 734 mmHg 87%
    03:00 -9°C° 0.3 mm 6 mps 735 mmHg 84%
    04:00 -10°C° 0.1 mm 6 mps 736 mmHg 84%
    05:00 -11°C° 0.1 mm 5 mps 737 mmHg 83%
    06:00 -11°C° 0.1 mm 5 mps 738 mmHg 82%
    07:00 -11°C° 0 mm 5 mps 739 mmHg 83%
    08:00 -11°C° 0 mm 5 mps 740 mmHg 84%
    09:00 -10°C° 0 mm 4 mps 741 mmHg 85%
    10:00 -11°C° 0 mm 5 mps 742 mmHg 83%
    11:00 -10°C° 0 mm 5 mps 742 mmHg 81%
    12:00 -10°C° 0 mm 6 mps 743 mmHg 79%
    13:00 -10°C° 0 mm 5 mps 744 mmHg 79%
    14:00 -11°C° 0 mm 5 mps 744 mmHg 79%
    15:00 -11°C° 0 mm 5 mps 745 mmHg 78%
    16:00 -10°C° 0 mm 4 mps 745 mmHg 80%
    17:00 -11°C° 0 mm 4 mps 746 mmHg 82%
    18:00 -11°C° 0 mm 4 mps 746 mmHg 83%
    19:00 -11°C° 0 mm 4 mps 746 mmHg 85%
    20:00 -11°C° 0 mm 4 mps 747 mmHg 87%
    21:00 -10°C° 0 mm 3 mps 747 mmHg 88%
    22:00 -10°C° 0.1 mm 3 mps 747 mmHg 88%
    23:00 -9°C° 0.1 mm 3 mps 746 mmHg 89%

    Day after tomorrow, 24 November, Saturday

    Time Temperature Precipitation Wind Pressure Humidity
    00:00 -10°C° 0.1 mm 4 mps 746 mmHg 89%
    01:00 -10°C° 0.1 mm 4 mps 746 mmHg 89%
    02:00 -9°C° 0.1 mm 4 mps 746 mmHg 90%
    03:00 -9°C° 0.1 mm 4 mps 746 mmHg 91%
    04:00 -9°C° 0 mm 4 mps 745 mmHg 90%
    05:00 -9°C° 0 mm 4 mps 745 mmHg 89%
    06:00 -10°C° 0 mm 5 mps 744 mmHg 88%
    07:00 -10°C° 0 mm 5 mps 744 mmHg 88%
    08:00 -10°C° 0 mm 5 mps 743 mmHg 88%
    09:00 -10°C° 0 mm 6 mps 743 mmHg 87%
    10:00 -9°C° 0.1 mm 6 mps 742 mmHg 85%
    11:00 -8°C° 0.1 mm 6 mps 742 mmHg 83%
    12:00 -8°C° 0.1 mm 7 mps 741 mmHg 82%
    13:00 -6°C° 0 mm 6 mps 741 mmHg 81%
    14:00 -6°C° 0 mm 6 mps 741 mmHg 81%
    15:00 -5°C° 0 mm 6 mps 740 mmHg 80%
    16:00 -5°C° 0 mm 6 mps 741 mmHg 82%
    17:00 -5°C° 0 mm 6 mps 741 mmHg 83%
    18:00 -5°C° 0 mm 6 mps 741 mmHg 84%
    19:00 -5°C° 0 mm 6 mps 741 mmHg 85%
    20:00 -5°C° 0 mm 5 mps 741 mmHg 85%
    21:00 -5°C° 0 mm 5 mps 741 mmHg 86%
    22:00 -6°C° 0 mm 5 mps 741 mmHg 87%
    23:00 -6°C° 0 mm 5 mps 741 mmHg 87%

    25 November, Sunday

    Time Temperature Precipitation Wind Pressure Humidity
    00:00 -6°C° 0 mm 5 mps 741 mmHg 88%
    01:00 -6°C° 0.2 mm 5 mps 740 mmHg 89%
    02:00 -6°C° 0.2 mm 5 mps 740 mmHg 89%
    03:00 -6°C° 0.2 mm 5 mps 740 mmHg 90%
    04:00 -6°C° 0.2 mm 5 mps 740 mmHg 90%
    05:00 -6°C° 0.2 mm 5 mps 739 mmHg 89%
    06:00 -6°C° 0.2 mm 5 mps 739 mmHg 88%
    07:00 -6°C° 0.1 mm 5 mps 740 mmHg 88%
    08:00 -6°C° 0.1 mm 5 mps 740 mmHg 88%
    09:00 -5°C° 0.1 mm 5 mps 740 mmHg 87%
    10:00 -5°C° 0.1 mm 5 mps 741 mmHg 86%
    11:00 -5°C° 0.1 mm 5 mps 741 mmHg 84%
    12:00 -5°C° 0.1 mm 5 mps 741 mmHg 83%
    13:00 -4°C° 0 mm 4 mps 742 mmHg 84%
    14:00 -5°C° 0 mm 4 mps 742 mmHg 85%
    15:00 -5°C° 0 mm 3 mps 743 mmHg 86%
    16:00 -5°C° 0 mm 3 mps 743 mmHg 88%
    17:00 -5°C° 0 mm 2 mps 743 mmHg 90%
    18:00 -5°C° 0 mm 2 mps 744 mmHg 91%
    19:00 -5°C° 0 mm 2 mps 744 mmHg 91%
    20:00 -3°C° 0 mm 1 mps 744 mmHg 92%
    21:00 -3°C° 0 mm 1 mps 744 mmHg 92%
    22:00 -3°C° 0 mm 1 mps 744 mmHg 92%
    23:00 -3°C° 0 mm 1 mps 744 mmHg 92%

    26 November, Monday

    Time Temperature Precipitation Wind Pressure Humidity
    00:00 -3°C° 0 mm 1 mps 744 mmHg 92%
    01:00 -3°C° 0 mm 1 mps 744 mmHg 92%
    02:00 -4°C° 0 mm 1 mps 744 mmHg 93%
    03:00 -6°C° 0 mm 2 mps 744 mmHg 94%
    04:00 -6°C° 0 mm 2 mps 744 mmHg 94%
    05:00 -6°C° 0 mm 2 mps 744 mmHg 95%
    06:00 -6°C° 0 mm 2 mps 744 mmHg 95%
    07:00 -6°C° 0 mm 2 mps 744 mmHg 95%
    08:00 -6°C° 0 mm 2 mps 744 mmHg 95%
    09:00 -6°C° 0 mm 2 mps 744 mmHg 95%
    10:00 -6°C° 0 mm 2 mps 744 mmHg 94%
    11:00 -3°C° 0 mm 1 mps 743 mmHg 92%
    12:00 -3°C° 0 mm 1 mps 743 mmHg 91%
    13:00 -3°C° 0 mm 1 mps 743 mmHg 92%
    14:00 -3°C° 0 mm 1 mps 743 mmHg 92%
    15:00 -4°C° 0 mm 1 mps 743 mmHg 93%
    16:00 -4°C° 0.1 mm 1 mps 743 mmHg 94%
    17:00 -4°C° 0.1 mm 1 mps 743 mmHg 94%
    18:00 -6°C° 0.1 mm 1 mps 743 mmHg 95%
    19:00 -6°C° 0.1 mm 1 mps 742 mmHg 95%
    20:00 -6°C° 0.1 mm 1 mps 742 mmHg 95%
    21:00 -4°C° 0.1 mm 1 mps 742 mmHg 95%
    22:00 -6°C° 0.2 mm 1 mps 742 mmHg 96%
    23:00 -6°C° 0.2 mm 1 mps 742 mmHg 96%

    27 November, Tuesday

    Time Temperature Precipitation Wind Pressure Humidity
    00:00 -6°C° 0.2 mm 1 mps 742 mmHg 96%
    01:00 -6°C° 0.1 mm 1 mps 742 mmHg 96%
    02:00 -6°C° 0.1 mm 1 mps 742 mmHg 97%
    03:00 -6°C° 0.1 mm 1 mps 742 mmHg 97%
    04:00 -6°C° 0.1 mm 1 mps 742 mmHg 97%
    05:00 -6°C° 0.1 mm 1 mps 742 mmHg 97%
    06:00 -7°C° 0.1 mm 1 mps 742 mmHg 97%
    07:00 -7°C° 0 mm 1 mps 743 mmHg 96%
    08:00 -7°C° 0 mm 1 mps 743 mmHg 96%
    09:00 -8°C° 0 mm 1 mps 744 mmHg 95%
    10:00 -7°C° 0 mm 1 mps 744 mmHg 94%
    11:00 -7°C° 0 mm 1 mps 745 mmHg 93%
    12:00 -7°C° 0 mm 1 mps 745 mmHg 92%
    13:00 -7°C° 0 mm 1 mps 746 mmHg 93%
    14:00 -8°C° 0 mm 1 mps 746 mmHg 94%
    15:00 -8°C° 0 mm 1 mps 747 mmHg 95%
    16:00 -8°C° 0 mm 1 mps 747 mmHg 95%
    17:00 -9°C° 0 mm 1 mps 747 mmHg 95%
    18:00 -9°C° 0 mm 1 mps 748 mmHg 96%
    19:00 -9°C° 0 mm 1 mps 748 mmHg 96%
    20:00 -10°C° 0 mm 1 mps 749 mmHg 96%
    21:00 -10°C° 0 mm 1 mps 749 mmHg 95%
    22:00 -10°C° 0 mm 1 mps 750 mmHg 95%
    23:00 -10°C° 0 mm 1 mps 750 mmHg 95%
    Show more